OBJECT AG

Satellite information

Favourite Embed

Satellite Type and Status

UNKNOWNIN ORBIT

Key statistics

Satellite OBJECT AG at a glance.

Uptime

74

Days in orbit

Revolutions

≈ 15.2

Per day

Orbit

SSO

Sun Synchronous Orbit

Inclination

97.5

Latest

Satellite identification and parameters

Extended collection of information and parameters for OBJECT AG.

Object identification

Identified? True

Debris? False

Object name: OBJECT AG

International designator: 2025-135AG

Object number (NORAD): 64558

Object ID (CCSDS): 64558

Country: TO BE DETERMINED/UNKNOWN (TBD)

Current information (Y/N): Y

RCS size: MEDIUM

Orbital parameters

Period: 94.868 minutes

Inclination: 97.4539 deg

SMA: 6890.319 km

Apoapsis: 517.277 km

Periapsis: 507.09 km

RAAN: 0.2321 deg

Eccentricy: 0.00073916

Argument of periapsis: 86.712 deg

Mean anomaly: 273.4959 deg

Mean motion: 15.17902284 rev/day

Mean motion (dot): 0.00017275 rev/day2

B* drag term: 0.0008534047 1/REarth

Two-line elements (TLE)

Creation date: Sept. 4, 2025, 4:29 a.m.

Reference frame: TEME

Reference center: EARTH

Epoch: Sept. 3, 2025, 9:25 p.m. UTC

TLE line 0: 0 OBJECT AG

TLE line 1: 1 64558U 25135AG 25246.89298488 .00017275 00000-0 85340-3 0 9994

TLE line 2: 2 64558 97.4539 0.2321 0007392 86.7120 273.4959 15.17902284 11280

Live tracking on map

Real-time ground track for satellite OBJECT AG.

In-orbit conjunctions

There are no conjunctions computed for OBJECT AG, at the moment. Check back to stay up to date, as we update our databases every day.

Go to all conjunctions

Associated space launch

Dedicated rideshare flight to a sun-synchronous orbit with dozens of small microsatellites and nanosatellites for commercial and government customers.

OBJECT AG was lifted into orbit during the mission ‘Falcon 9 Block 5 | Transporter 14 (Dedicated SSO Rideshare)’, on board a Falcon 9 space rocket.

The launch took place on June 23, 2025, 9:25 p.m. from Space Launch Complex 4E.

For more information about the launch, click the button.

Launch to space Falcon 9 Block 5 | Transporter 14 (Dedicated SSO Rideshare)
Falcon 9 Block 5 | Transporter 14 (Dedicated SSO Rideshare)

Agency: SpaceX

Status: Launch Successful

Launch date: June 23, 2025, 9:25 p.m. UTC

Rocket: Falcon 9

Launch pad: Space Launch Complex 4E

Location: Vandenberg SFB, CA, USA

...

Latest news about this satellite

News about space launch
A European spacecraft company flies its vehicle, then loses it after reentry

"This partial success reflects both ambition and the inherent risks of innovation."

News about space launch
The Exploration Company claims partial success of Mission Possible reentry spacecraft

The Exploration Company said it achieved “partial success” on a test flight of a reentry capsule but lost the spacecraft before it splashed down. The post The Exploration Company claims partial success of Mission Possible reentry spacecraft appeared firs...

News about space launch
The Exploration Company Declares Mission Possible a “Partial Success”

In-space logistics startup The Exploration Company has declared its Mission Possible flight both a partial success and a partial failure following a successful reentry. As The Exploration Company works toward the inaugural flight of its full-scale Nyx spa...


Newsletter sign-up

Weekly statistics, charts and insights to help you stay on top of the space industry.